Location: Knowlton
(51.2333°N, 1.2667°E)
Time: 04:55:22
(UTC+00:00)

Cosmos 2227 Rocket - Pass Details

Date: 18 April 2021
Orbit: 840 x 844 km, 71.0° (Epoch: 06 May)

Event Time Altitude Azimuth Distance (km) Brightness Sun altitude
Exits shadow 19:57:02 12° 120° (ESE) 2,331 3.8 -9.4°
Maximum altitude 19:59:10 14° 97° (E) 2,169 3.8 -9.7°
Drops below altitude 10° 20:02:03 10° 66° (ENE) 2,470 4.3 -10.1°
Sets 20:05:39 0° 43° (NE) 3,410 5.3 -10.5°
